Powrót do katalogu

ICEYE-X48

AktywnyNaukaSSO
NORAD 63253·PAYLOAD·🇺🇸 United States

Wystrzelony Mar 15, 2025 z Vandenberg Space Force Base

Loading…

Następne Przeloty (najbliższe 24 godziny)

TLE

ŚwieżeSource: Space-Track

Epoka: Sep 13, 2026, 16:26 UTC

1 63253U 25052AV  26256.68485489  .00001733  00000-0  14995-3 0  9991
2 63253  97.6730 147.4853 0000943 296.2187  63.8939 14.98443756 81925

Śledź ICEYE-X48 w czasie rzeczywistym z AllMySat

Download on the App Store